GW0701 Weather Reports


Display with metric or nautical units.
time (UTC)temp
F
wind
direction
speed
MPH
gust
MPH
rain 1hr
in
rain 24hr
in
rain mn
in
humidity
%
barometer
mb
20260503195957 69 215 3.0 5.0 0.00 0.00 0.00 49 1008.7
20260503195455 69 212 5.0 7.0 0.00 0.00 0.00 51 1008.9
20260503194951 68 281 7.0 11.0 0.00 0.00 0.00 51 1009.3
20260503194449 68 262 4.0 5.0 0.00 0.00 0.00 51 1008.9
20260503193943 68 214 3.0 5.0 0.00 0.00 0.00 51 1009.0
20260503193439 68 248 5.0 7.0 0.00 0.00 0.00 51 1008.9
20260503192935 68 233 6.0 7.0 0.00 0.00 0.00 50 1008.7
20260503192432 68 238 7.0 9.0 0.00 0.00 0.00 51 1008.9
20260503191927 69 217 4.0 6.0 0.00 0.00 0.00 50 1009.0
20260503191425 69 241 8.0 11.0 0.00 0.00 0.00 51 1009.2
20260503190921 68 208 6.0 7.0 0.00 0.00 0.00 51 1009.0
20260503190419 68 218 3.0 5.0 0.00 0.00 0.00 52 1009.2
20260503185915 68 265 8.0 13.0 0.00 0.00 0.00 50 1009.3
20260503185412 68 247 5.0 7.0 0.00 0.00 0.00 52 1009.8
20260503184911 67 246 6.0 7.0 0.00 0.00 0.00 51 1009.7
20260503184408 67 253 8.0 14.0 0.00 0.00 0.00 51 1009.7
20260503183904 67 246 4.0 6.0 0.00 0.00 0.00 53 1010.0
20260503183401 67 212 9.0 11.0 0.00 0.00 0.00 51 1009.4
20260503182858 66 223 7.0 10.0 0.00 0.00 0.00 53 1009.3
20260503182357 66 239 5.0 7.0 0.00 0.00 0.00 52 1009.7
20260503181854 65 205 3.0 5.0 0.00 0.00 0.00 52 1009.8
20260503181351 65 220 3.0 3.0 0.00 0.00 0.00 53 1010.2
20260503180847 65 263 4.0 6.0 0.00 0.00 0.00 53 1009.7
20260503180345 65 258 4.0 6.0 0.00 0.00 0.00 52 1010.0
20260503175841 65 258 6.0 7.0 0.00 0.00 0.00 52 1010.4
20260503175340 65 258 5.0 6.0 0.00 0.00 0.00 53 1010.6
20260503174835 65 237 4.0 5.0 0.00 0.00 0.00 52 1010.5
20260503174333 64 243 4.0 5.0 0.00 0.00 0.00 53 1010.4
20260503173828 64 219 7.0 8.0 0.00 0.00 0.00 51 1009.6
20260503173325 64 221 6.0 8.0 0.00 0.00 0.00 52 1010.1
20260503172822 64 222 5.0 7.0 0.00 0.00 0.00 52 1010.8
20260503172320 65 271 5.0 8.0 0.00 0.00 0.00 51 1010.9
20260503171815 65 278 5.0 6.0 0.00 0.00 0.00 50 1011.0
20260503171312 64 210 6.0 7.0 0.00 0.00 0.00 51 1010.8
20260503170809 63 222 4.0 6.0 0.00 0.00 0.00 53 1011.0
20260503170306 63 217 5.0 7.0 0.00 0.00 0.00 52 1010.9
20260503150658 58 195 11.0 15.0 0.00 0.00 0.00 57 1011.9
20260503150154 57 196 9.0 11.0 0.00 0.00 0.00 58 1012.6
20260503140119 54 188 3.0 5.0 0.00 0.00 0.00 65 1013.5
20260503131048 51 183 8.0 10.0 0.00 0.00 0.00 67 1013.6
20260503130545 51 184 2.0 2.0 0.00 0.00 0.00 68 1013.6
20260503110436 45 215 2.0 2.0 0.00 0.00 0.00 73 1014.3
20260503090321 46 217 3.0 3.0 0.00 0.00 0.00 70 1014.8
20260503081248 46 209 3.0 3.0 0.00 0.00 0.00 71 1015.4
20260503080744 46 224 2.0 2.0 0.00 0.00 0.00 72 1015.4
20260503080242 45 226 1.0 1.0 0.00 0.00 0.00 72 1015.2
20260503072718 45 213 2.0 2.0 0.00 0.00 0.00 72 1015.4
20260503072215 45 215 1.0 2.0 0.00 0.00 0.00 72 1015.6
20260503071712 45 220 1.0 1.0 0.00 0.00 0.00 72 1015.6
20260503071209 45 220 1.0 2.0 0.00 0.00 0.00 73 1015.5
20260503070705 45 222 1.0 1.0 0.00 0.00 0.00 73 1015.9
20260503070204 45 223 1.0 1.0 0.00 0.00 0.00 72 1016.0
20260503060127 46 220 1.0 1.0 0.00 0.00 0.00 70 1016.3
20260503055119 46 224 1.0 1.0 0.00 0.00 0.00 68 1016.3
20260503054615 47 211 2.0 2.0 0.00 0.00 0.00 69 1016.2
20260503054112 47 213 1.0 1.0 0.00 0.00 0.00 68 1016.5
20260503053610 47 215 1.0 2.0 0.00 0.00 0.00 68 1016.5
20260503053108 47 226 0.0 1.0 0.00 0.00 0.00 69 1016.6
20260503052604 47 215 1.0 1.0 0.00 0.00 0.00 68 1016.6
20260503052101 46 206 1.0 2.0 0.00 0.00 0.00 69 1016.7
20260503051556 47 221 1.0 1.0 0.00 0.00 0.00 69 1016.7
20260503051054 47 217 1.0 1.0 0.00 0.00 0.00 69 1016.7
20260503050550 46 211 0.0 1.0 0.00 0.00 0.00 70 1016.8
20260503050047 46 206 1.0 1.0 0.00 0.00 0.00 70 1016.9
20260503045544 46 202 2.0 2.0 0.00 0.00 0.00 71 1016.7
20260503045042 46 207 0.0 1.0 0.00 0.00 0.00 72 1016.9
20260503044538 46 208 0.0 0.0 0.00 0.00 0.00 70 1016.7
20260503044036 46 208 0.0 0.0 0.00 0.00 0.00 71 1016.8
20260503043532 46 208 0.0 1.0 0.00 0.00 0.00 70 1016.9
20260503043029 46 208 0.0 0.0 0.00 0.00 0.00 73 1017.0
20260503042526 46 207 0.0 0.0 0.00 0.00 0.00 71 1016.8
20260503042021 46 207 0.0 0.0 0.00 0.00 0.00 71 1017.0
20260503041519 47 207 0.0 0.0 0.00 0.00 0.00 70 1017.0
20260503041017 47 208 0.0 0.0 0.00 0.00 0.00 71 1017.1
20260503040514 47 208 0.0 0.0 0.00 0.00 0.00 72 1017.3
20260503040011 47 207 1.0 1.0 0.00 0.00 0.00 71 1017.4
20260503035508 47 205 1.0 1.0 0.00 0.00 0.00 70 1017.4
20260503035005 47 204 2.0 2.0 0.00 0.00 0.00 70 1017.3
20260503034502 48 205 1.0 1.0 0.00 0.00 0.00 69 1017.3
20260503033959 48 203 1.0 2.0 0.00 0.00 0.00 67 1017.3
20260503033456 48 208 1.0 1.0 0.00 0.00 0.00 69 1017.3
20260503032954 48 208 1.0 1.0 0.00 0.00 0.00 67 1017.5
20260503032452 48 214 1.0 1.0 0.00 0.00 0.00 69 1017.5
20260503031950 48 214 1.0 1.0 0.00 0.00 0.00 68 1017.5
20260503031448 48 215 1.0 1.0 0.00 0.00 0.00 70 1017.8
20260503030944 48 215 0.0 0.0 0.00 0.00 0.00 68 1017.6
20260503030440 48 215 0.0 0.0 0.00 0.00 0.00 67 1017.8
20260503025937 48 216 1.0 1.0 0.00 0.00 0.00 69 1017.3
20260503025434 48 217 1.0 1.0 0.00 0.00 0.00 69 1017.5
20260503024932 48 218 0.0 0.0 0.00 0.00 0.00 67 1017.6
20260503024428 49 218 0.0 0.0 0.00 0.00 0.00 70 1017.4
20260503023926 49 220 0.0 1.0 0.00 0.00 0.00 68 1017.5
20260503023423 49 220 0.0 0.0 0.00 0.00 0.00 65 1017.4
20260503022919 49 220 0.0 1.0 0.00 0.00 0.00 67 1017.4
20260503022414 49 221 0.0 0.0 0.00 0.00 0.00 64 1017.4
20260503021910 49 221 0.0 0.0 0.00 0.00 0.00 67 1017.4
20260503021406 50 221 0.0 0.0 0.00 0.00 0.00 66 1017.4
20260503020904 50 221 1.0 1.0 0.00 0.00 0.00 64 1017.4
20260503020402 50 221 1.0 1.0 0.00 0.00 0.00 63 1017.2
20260503015858 50 238 0.0 0.0 0.00 0.00 0.00 62 1017.3
20260503015355 50 238 0.0 0.0 0.00 0.00 0.00 60 1017.4
20260503014850 49 238 0.0 0.0 0.00 0.00 0.00 61 1017.2
20260503014348 50 238 0.0 0.0 0.00 0.00 0.00 58 1017.3
20260503013846 50 238 0.0 0.0 0.00 0.00 0.00 58 1017.2
20260503013343 51 238 0.0 0.0 0.00 0.00 0.00 56 1017.3
20260503012840 51 238 0.0 0.0 0.00 0.00 0.00 57 1017.2
20260503012338 51 238 0.0 0.0 0.00 0.00 0.00 58 1017.2
20260503011834 52 238 0.0 0.0 0.00 0.00 0.00 56 1017.2
20260503011331 52 238 0.0 0.0 0.00 0.00 0.00 55 1017.3
20260503010827 53 238 0.0 0.0 0.00 0.00 0.00 55 1017.1
20260503010325 53 238 0.0 0.0 0.00 0.00 0.00 56 1017.2
20260503005821 54 238 0.0 0.0 0.00 0.00 0.00 57 1017.0
20260503005319 54 238 0.0 0.0 0.00 0.00 0.00 57 1017.1
20260503004815 55 238 0.0 0.0 0.00 0.00 0.00 54 1017.1
20260503004313 56 238 0.0 0.0 0.00 0.00 0.00 52 1017.3
20260503003810 57 238 0.0 0.0 0.00 0.00 0.00 46 1017.0
20260503003307 57 241 0.0 0.0 0.00 0.00 0.00 44 1017.0
20260503002804 58 242 0.0 1.0 0.00 0.00 0.00 42 1017.0
20260503002301 58 248 1.0 1.0 0.00 0.00 0.00 40 1017.2
20260503001757 59 244 1.0 1.0 0.00 0.00 0.00 41 1017.2
20260503001253 59 256 2.0 2.0 0.00 0.00 0.00 39 1017.3
20260503000751 60 273 1.0 1.0 0.00 0.00 0.00 39 1017.1
20260503000248 60 246 1.0 2.0 0.00 0.00 0.00 38 1017.3
20260502235745 60 282 2.0 2.0 0.00 0.00 0.00 38 1017.2
20260502235243 61 254 2.0 2.0 0.00 0.00 0.00 38 1017.3
20260502234739 60 249 2.0 2.0 0.00 0.00 0.00 37 1017.5
20260502234236 60 249 3.0 3.0 0.00 0.00 0.00 36 1017.4
20260502233732 60 256 2.0 3.0 0.00 0.00 0.00 37 1017.5
20260502233229 60 290 1.0 2.0 0.00 0.00 0.00 38 1017.4
20260502232725 60 235 3.0 3.0 0.00 0.00 0.00 36 1017.5
20260502232222 61 255 4.0 6.0 0.00 0.00 0.00 36 1017.4
20260502231719 60 266 3.0 3.0 0.00 0.00 0.00 37 1017.7
20260502231217 61 283 3.0 3.0 0.00 0.00 0.00 38 1017.6
20260502230716 60 281 3.0 3.0 0.00 0.00 0.00 37 1017.6
20260502230213 60 290 2.0 2.0 0.00 0.00 0.00 36 1017.5
20260502225709 60 245 2.0 2.0 0.00 0.00 0.00 36 1017.7
20260502225206 60 271 3.0 5.0 0.00 0.00 0.00 35 1017.6
20260502224702 61 260 4.0 5.0 0.00 0.00 0.00 34 1017.8
20260502224159 61 272 1.0 2.0 0.00 0.00 0.00 35 1017.9
20260502223657 61 231 1.0 1.0 0.00 0.00 0.00 35 1017.7
20260502223155 61 247 3.0 3.0 0.00 0.00 0.00 35 1017.7
20260502222652 60 91 1.0 1.0 0.00 0.00 0.00 34 1017.7
20260502222149 60 275 1.0 1.0 0.00 0.00 0.00 40 1017.7
20260502221644 60 256 1.0 1.0 0.00 0.00 0.00 34 1017.6
20260502221142 60 226 1.0 1.0 0.00 0.00 0.00 37 1017.8
20260502220638 60 268 2.0 3.0 0.00 0.00 0.00 38 1017.7
20260502220134 61 280 5.0 6.0 0.00 0.00 0.00 34 1017.9
20260502215631 61 242 6.0 7.0 0.00 0.00 0.00 34 1017.8
20260502215128 61 243 4.0 6.0 0.00 0.00 0.00 35 1018.0
20260502214625 60 244 3.0 3.0 0.00 0.00 0.00 34 1018.0
20260502214122 61 325 4.0 6.0 0.00 0.00 0.00 34 1018.0
20260502213620 61 273 1.0 1.0 0.00 0.00 0.00 37 1017.9
20260502213117 60 220 1.0 1.0 0.00 0.00 0.00 34 1018.0
20260502212616 61 272 4.0 5.0 0.00 0.00 0.00 34 1018.0
20260502212114 61 303 4.0 5.0 0.00 0.00 0.00 33 1018.1
20260502211609 61 291 3.0 3.0 0.00 0.00 0.00 33 1018.4
20260502211106 61 212 4.0 6.0 0.00 0.00 0.00 35 1017.8
20260502210603 61 280 6.0 8.0 0.00 0.00 0.00 33 1018.2
20260502210100 58 257 2.0 3.0 0.00 0.00 0.00 41 1018.3
20260502205556 59 269 2.0 3.0 0.00 0.00 0.00 36 1018.4
20260502205053 60 182 2.0 3.0 0.00 0.00 0.00 34 1018.5
20260502204550 61 253 4.0 5.0 0.00 0.00 0.00 34 1018.5
20260502204048 58 115 1.0 1.0 0.00 0.00 0.00 36 1018.6
20260502203545 58 282 1.0 1.0 0.00 0.00 0.00 38 1018.7
20260502203042 59 357 2.0 2.0 0.00 0.00 0.00 37 1018.7
20260502202538 57 271 1.0 2.0 0.00 0.00 0.00 38 1018.7
20260502202036 59 229 6.0 7.0 0.00 0.00 0.00 36 1018.9
20260502201532 60 216 4.0 7.0 0.00 0.00 0.00 38 1019.1
20260502201029 61 302 4.0 5.0 0.00 0.00 0.00 34 1018.8
20260502200524 59 216 2.0 3.0 0.00 0.00 0.00 39 1018.8